#timestamp,LO_Frequency,Hit,StdDev 
1594443615.7,286046988.4,N
1594443635.6,286046987.0,N
1594443655.4,286046987.7,N
1594443675.2,286046987.3,N
1594443695.1,286046989.7,N
1594443696.0,286046989.7,N
1594443715.8,286046989.6,N
1594443735.6,286046988.5,N
1594443755.5,286046991.1,N
1594443775.3,286046988.8,N
1594443795.2,286046990.9,N
1594443815.9,286046992.8,N
1594443835.7,286046990.1,N
1594443855.6,286046990.3,N
1594443875.4,286046992.8,N
1594443895.2,286046992.4,N
1594443915.1,286046992.1,N
1594443916.0,286046992.1,Y
1594443935.8,286047004.4,P
1594443955.7,286047002.5,N
1594443975.5,286047002.4,N
1594443995.3,286047002.4,N
1594444015.2,286047002.6,N
1594444035.0,286047003.5,N
1594444035.9,286047003.5,N
1594444055.8,286047005.7,N
1594444075.6,286047005.4,N
1594444095.4,286047006.0,N
1594444115.3,286047003.4,N
1594444135.1,286047005.6,N
1594444155.8,286047005.1,N
1594444175.7,286047005.8,N
1594444195.5,286047004.8,N
1594444215.4,286047005.2,N
1594444235.2,286047005.6,N
1594444255.0,286047005.1,N
1594444255.9,286047005.1,N
1594444275.8,286047004.7,N
1594444295.6,286047004.6,N
1594444315.4,286047004.5,N
1594444335.3,286047005.0,N
1594444355.1,286047007.0,N
1594444375.9,286047004.5,N
1594444395.7,286047004.7,N
1594444445.6,286047007.4,E
1594444455.5,286047003.2,N
1594444475.3,286046999.9,P
1594444495.2,286047000.5,N
1594444515.9,286047000.6,N
1594444535.7,286047000.4,N
1594444555.6,286046999.9,N
1594444575.4,286047000.5,N
1594444595.2,286046998.8,N
1594444615.1,286047000.5,N
1594444616.0,286047000.5,N
1594444635.8,286047000.9,N
1594444655.7,286047002.6,N
1594444675.5,286047001.7,N
1594444695.3,286047003.1,N
1594444715.2,286047003.1,N
1594444735.0,286047003.3,N
1594444735.9,286047003.3,N
1594444755.7,286047003.3,N
1594444775.6,286047003.7,N
1594444795.4,286047011.9,Y
1594444815.3,286047004.1,P
1594444835.1,286047005.9,P
1594444855.8,286047003.1,N
1594444875.7,286047004.2,N
1594444895.5,286047002.0,N
1594444915.4,286047001.3,N
1594444935.2,286047003.7,N
1594444955.0,286047005.9,Y
1594444955.9,286047005.9,P
1594444975.8,286047002.7,N
1594444995.6,286046998.3,N
1594445015.4,286046999.0,N
1594445035.3,286046999.2,N
1594445055.1,286046998.9,N
1594445075.9,286047000.8,N
1594445095.7,286046998.3,N
1594445115.5,286047000.9,N
1594445135.4,286047002.0,N
1594445155.2,286047001.4,N
1594445175.1,286047002.3,N
1594445176.0,286047002.3,N
1594445195.8,286046999.7,N
1594445215.6,286046998.2,N
1594445235.5,286046999.0,N
1594445255.3,286046998.9,N
1594445275.1,286046999.0,N
1594445295.9,286046999.2,N
1594445315.7,286046999.5,N
1594445335.6,286046999.5,N
1594445355.4,286046996.5,N
1594445375.2,286046996.6,N
1594445395.1,286046998.4,N
1594445396.0,286046998.4,N
1594445415.8,286047001.2,N
1594445435.6,286047001.2,N
1594445455.5,286046998.1,N
1594445475.3,286046998.3,N
1594445495.2,286046999.1,N
1594445515.9,286046998.1,N
1594445535.7,286047001.1,N
1594445555.6,286047002.7,N
1594445575.4,286047000.6,N
1594445595.2,286047001.0,N
1594445615.1,286047000.8,N
1594445616.0,286047000.8,N
1594445635.8,286046998.2,N
1594445655.7,286047000.8,N
1594445675.5,286047000.9,N
1594445695.3,286046998.8,N
1594445715.2,286047000.4,N
1594445735.0,286047000.7,N
1594445735.9,286047000.7,N
1594445755.8,286047000.2,N
1594445775.6,286046999.8,N
1594445795.4,286047002.5,N
1594445815.3,286047002.4,N
1594445835.1,286047000.1,N
1594445855.8,286047002.3,N
1594445875.7,286047002.3,N
1594445895.5,286047001.3,N
1594445915.4,286047004.0,N
1594445935.2,286047005.9,Y
1594445955.0,286047003.1,P
1594445955.9,286047003.1,N
1594445975.8,286047004.4,P
1594445995.6,286047001.4,N
1594446015.4,286047002.1,N
1594446035.3,286047001.9,N
1594446055.1,286047001.5,N
1594446075.9,286047002.6,N
1594446095.7,286047002.4,N
1594446115.5,286047002.6,N
1594446135.4,286047001.6,N
1594446155.2,286047005.8,Y
1594446175.1,286047003.4,P
1594446176.0,286047003.4,P
1594446195.8,286047003.0,P
1594446215.6,286047002.9,Y
1594446235.5,286047003.8,P
1594446255.3,286047003.8,P
1594446275.2,286047003.0,P
1594446295.9,286047003.9,Y
1594446315.7,286046998.4,P
1594446335.6,286046998.1,N
1594446355.4,286046998.8,N
1594446375.3,286046998.7,N
1594446395.1,286047000.7,N
1594446396.0,286047000.7,N
1594446415.8,286047001.0,N
1594446435.7,286046999.7,N
1594446455.5,286047002.2,N
1594446475.3,286047004.4,N
1594446495.2,286047002.6,N
1594446515.0,286047001.7,N
1594446515.9,286047001.7,N
1594446535.8,286047001.8,N
1594446555.6,286047001.3,N
1594446575.4,286047004.3,N
1594446595.3,286047000.6,N
1594446615.1,286047001.1,N
1594446635.9,286046996.7,N
1594446655.7,286046996.7,N
1594446675.5,286046996.6,N
1594446695.4,286046997.4,N
1594446715.2,286046995.3,N
1594446735.0,286046997.7,N
1594446736.0,286046997.7,N
1594446755.8,286046997.7,N
1594446775.6,286046999.2,N
1594446795.5,286046999.5,N
1594446815.3,286046997.7,N
1594446835.1,286046995.6,N
1594446855.9,286046995.6,N
1594446875.7,286046993.4,N
1594446895.6,286046995.2,N
1594446915.4,286046996.0,N
1594446935.2,286046993.3,N
1594446955.1,286046995.9,N
1594446956.0,286046995.9,N
1594446975.8,286046993.7,N
1594446995.6,286046993.7,N
1594447015.5,286046995.1,N
1594447035.3,286046995.0,N
1594447055.2,286046996.9,N
1594447075.9,286046998.9,N
1594447095.7,286047000.9,N
1594447115.6,286047001.1,N
1594447135.4,286047000.7,N
1594447155.2,286047000.4,N
1594447175.1,286046999.5,N
1594447176.0,286046999.5,N
1594447195.8,286046998.4,N
